Notices

What's New in latest Release from April 7th, 2021:

- Updated Glossary, including Speed of Maximum Gust, and Total Hourly Precipitation

- Updated national and regional climate services offices contacts and prices information

- Addition of station inventory lists for 1981-2010, 1971-2000, and 1961-1990 Normals.

If you haven't already, please take our survey and provide feedback about our website: https://eccc.sondage-survey.ca/f/LanguageSelection.aspx?s=442ca660-fcf1-47c0-95a9-59707d6fd709

Hourly Data Report for January 20, 2021

SHEARWATER RCS
NOVA SCOTIA
Current Station Operator: ECCC - MSC

44°37'47.000" N
63°30'48.000" W
24.00 m
8205092
71264
AAW

Download Data

Hourly Data (January 2021)
Hourly Data Report for January 20, 2021
TIME
LST
Temp Definition
°C
Dew Point Definition
°C
Rel Hum Definition
%
Precip. Amount Definition
mm

Wind Dir Definition
10's deg

Wind Spd Definition
km/h
Visibility Definition
km
Stn Press Definition
kPa
Hmdx Definition


Wind Chill Definition


Weather Definition


00:00 -5.4 -13.5 53 0.0 29 13   100.84   -11 LegendNANA
01:00 -5.6 -13.9 52 0.0 29 14   100.82   -11 LegendNANA
02:00 -6.0 -13.5 55 0.0 29 12   100.83   -11 LegendNANA
03:00 -6.5 -13.1 59 0.0 28 11   100.85   -11 LegendNANA
04:00 -6.7 -13.6 58 0.0 29 12   100.81   -12 LegendNANA
05:00 -6.8 -13.6 59 0.0 28 13   100.81   -12 LegendNANA
06:00 -7.0 -13.2 61 0.0 28 11   100.82   -12 LegendNANA
07:00 -7.1 -12.9 63 0.0 30 12   100.82   -12 LegendNANA
08:00 -6.9 -12.4 65 0.0 26 8   100.80   -11 LegendNANA
09:00 -5.3 -12.0 60 0.0 29 9   100.80   -9 LegendNANA
10:00 -4.1 -13.0 50 0.0 30 13   100.76   -9 LegendNANA
11:00 -2.7 -14.2 41 0.0 27 9   100.72   -6 LegendNANA
12:00 -2.3 -14.3 39 0.0 30 9   100.63   -6 LegendNANA
13:00 -0.5 -13.8 36 0.0 27 7   100.52   -3 LegendNANA
14:00 0.3 -13.0 36 0.0 23 4   100.41     LegendNANA
15:00 -0.7 -14.1 35 0.0 28 6   100.33   -3 LegendNANA
16:00 -0.6 -13.4 37 0.0 28 3   100.34   -2 LegendNANA
17:00 -1.3 -13.0 40 0.0 31 3   100.42   -2 LegendNANA
18:00 -2.3 -10.6 53 0.0 24 7   100.44   -5 LegendNANA
19:00 -2.8 -11.3 52 0.0 34 5   100.44   -5 LegendNANA
20:00 -3.6 -10.4 59 0.0 33 10   100.47   -8 LegendNANA
21:00 -4.3 -9.2 69 0.0 32 9   100.50   -8 LegendNANA
22:00 -4.5 -8.7 73 0.0 32 5   100.47   -7 LegendNANA
23:00 -5.0 -8.9 74 0.0 33 11   100.43   -10 LegendNANA

Notes on Data Quality.

Legend

  • E = Estimated
  • M = Missing
  • NA = Not Available*
  • [empty] = Indicates an unobserved value
Date modified: